{"data":{"norad_id":60294,"epoch":"2026-05-25T00:24:11.794752Z","epoch_age_seconds":83799,"freshness":"FRESH","line1":"1 60294U 24132S   26145.01680318  .00005008  00000+0  18096-3 0  9997","line2":"2 60294  53.1588  58.0880 0001652 147.5553 212.5549 15.30227164103245","mean_motion":15.30227164,"eccentricity":0.0001652,"inclination_deg":53.1588,"raan_deg":58.088,"arg_perigee_deg":147.5553,"mean_anomaly_deg":212.5549,"bstar":0.00018096,"rev_number":10324,"period_min":94.103675184791,"perigee_km":474.00180344826,"apogee_km":476.26612417471,"semimajor_km":6853.2709638115,"source":"CELESTRAK","updated_at":"2026-05-25T13:38:19.224597Z"}}